#timestamp,LO_Frequency,Hit 
1500710415.5,286046996.5,N
1500710435.3,286046997.0,N
1500710455.2,286046996.6,N
1500710475.0,286046998.1,N
1500710475.9,286046998.1,N
1500710495.8,286047000.4,N
1500710515.6,286047000.8,N
1500710535.4,286046998.2,N
1500710555.3,286046998.7,N
1500710575.1,286046999.0,N
1500710595.9,286046998.7,N
1500710615.7,286046999.0,N
1500710635.5,286046999.2,N
1500710655.4,286046997.0,N
1500710675.2,286046997.7,N
1500710695.0,286046994.9,N
1500710695.9,286046994.9,N
1500710715.8,286046997.5,N
1500710735.6,286046996.7,N
1500710755.4,286046995.0,N
1500710775.3,286046995.6,N
1500710795.1,286046995.3,N
1500710815.9,286046995.0,N
1500710835.7,286046999.4,N
1500710855.5,286047002.8,N
1500710875.4,286046999.8,N
1500710895.2,286046998.6,N
1500710915.0,286046999.2,N
1500710916.0,286046999.2,N
1500710935.8,286046996.5,N
1500710955.6,286046997.1,N
1500710975.5,286046997.8,N
1500710995.3,286046995.3,N
1500711015.1,286046997.9,N
1500711035.9,286046995.4,N
1500711055.7,286046995.5,N
1500711075.5,286046996.0,N
1500711095.4,286046997.8,N
1500711115.2,286046997.6,N
1500711135.1,286046999.6,N
1500711136.0,286046999.6,N
1500711155.8,286047000.7,N
1500711175.6,286046998.2,N
1500711195.5,286046998.9,N
1500711215.3,286046996.6,N
1500711235.1,286046997.4,N
1500711255.9,286046997.9,N
1500711275.7,286046995.1,N
1500711295.6,286046994.9,N
1500711315.4,286046997.3,N
1500711335.2,286046997.1,N
1500711355.1,286046997.3,N
1500711356.0,286046997.3,N
1500711375.8,286046995.3,N
1500711395.6,286046996.8,N
1500711415.5,286047001.1,N
1500711435.3,286047000.3,N
1500711455.2,286046999.3,N
1500711475.9,286046998.5,N
1500711495.7,286046998.6,N
1500711515.6,286046998.7,N
1500711535.4,286046997.2,N
1500711555.2,286046997.6,N
1500711575.1,286046995.5,N
1500711576.0,286046995.5,N
1500711595.8,286046996.4,N
1500711615.7,286046996.1,N
1500711635.5,286046996.0,N
1500711655.3,286046993.9,Y
1500711675.2,286046995.2,N
1500711695.0,286046996.1,N
1500711695.9,286046996.1,N
1500711715.8,286046995.7,N
1500711735.6,286046996.0,N
1500711755.4,286046996.3,N
1500711775.3,286046996.3,N
1500711795.1,286046996.1,N
1500711815.8,286046996.2,N
1500711835.7,286046995.5,N
1500711855.5,286046995.9,N
1500711875.4,286046994.0,Y
1500711895.2,286046997.3,N
1500711915.0,286046999.3,N
1500711915.9,286046999.3,N
1500711935.8,286046999.5,N
1500711955.6,286046999.3,N
1500711975.4,286046998.1,N
1500711995.3,286047002.4,N
1500712015.1,286047002.6,N
1500712035.9,286047000.3,N
1500712055.7,286047000.7,N
1500712075.5,286047001.2,N
1500712095.4,286046998.1,N
1500712115.2,286047001.2,N
1500712135.0,286046998.3,N
1500712135.9,286046998.3,N
1500712155.8,286046998.2,N
1500712175.6,286047000.8,N
1500712195.5,286047000.0,N
1500712215.3,286046998.2,N
1500712235.1,286046998.4,N
1500712255.9,286046999.3,N
1500712275.7,286046999.6,N
1500712295.5,286046997.4,N
1500712315.4,286046997.9,N
1500712335.2,286046995.6,N
1500712355.1,286046995.8,N
1500712356.0,286046995.8,N
1500712375.8,286046995.2,N
1500712395.6,286046995.0,N
1500712415.5,286046998.0,N
1500712435.3,286046998.0,N
1500712455.2,286046995.0,N
1500712475.9,286046999.6,N
1500712495.7,286046999.5,N
1500712515.6,286046997.2,N
1500712535.4,286046997.3,N
1500712555.2,286046996.8,N
1500712575.1,286046997.8,N
1500712576.0,286046997.8,N
1500712595.8,286046997.5,N
1500712615.7,286046997.4,N
1500712635.5,286046997.8,N
1500712655.3,286046997.0,N
1500712675.2,286046997.0,N
1500712695.0,286046996.8,N
1500712695.9,286046996.8,N
1500712715.7,286046997.6,N
1500712735.6,286046995.2,N
1500712755.4,286046995.9,N
1500712775.3,286046995.8,N
1500712795.1,286046995.7,N
1500712796.0,286046995.7,N
1500712815.8,286046996.3,N
1500712835.7,286046996.0,N
1500712855.5,286046993.7,Y
1500712875.4,286046995.2,N
1500712895.2,286046997.5,N
1500712915.0,286046995.4,N
1500712915.9,286046995.4,N
1500712935.8,286046995.1,N
1500712955.6,286046995.3,N
1500712975.4,286046998.0,N
1500712995.3,286046997.8,N
1500713015.1,286046997.5,N
1500713035.9,286046994.9,N
1500713055.7,286046994.9,Y
1500713075.5,286046999.4,N
1500713095.4,286046998.3,N
1500713115.2,286046999.3,N
1500713135.0,286046999.6,N
1500713135.9,286046999.6,N
1500713155.8,286046999.3,N
1500713175.6,286046999.0,N
1500713195.5,286046998.5,N
1500713215.3,286046999.1,N
1500713235.1,286046998.4,N
1500713255.9,286046998.5,N
1500713275.7,286047002.1,N
1500713295.5,286047000.1,N
1500713315.4,286046999.9,N
1500713335.2,286047000.7,N
1500713355.1,286047000.9,N
1500713356.0,286047000.9,N
1500713375.8,286046998.3,N
1500713395.6,286046999.6,N
1500713415.5,286046999.2,N
1500713435.3,286046999.5,N
1500713455.1,286046999.0,N
1500713475.9,286046998.8,N
1500713495.7,286046998.4,N
1500713515.6,286046999.5,N
1500713535.4,286046999.2,N
1500713555.2,286046999.1,N
1500713575.1,286046996.5,N
1500713576.0,286046996.5,N
1500713595.8,286046996.7,N
1500713615.6,286046997.8,N
1500713635.5,286046997.4,N
1500713655.3,286046996.7,N
1500713675.2,286046999.2,N
1500713695.9,286046997.0,N
1500713715.7,286046997.4,N
1500713735.6,286046998.0,N
1500713755.4,286046995.0,N
1500713775.3,286046995.1,N
1500713795.1,286046995.4,N
1500713796.0,286046995.4,N
1500713815.8,286046995.2,N
1500713835.7,286046995.2,N
1500713855.5,286046996.2,N
1500713875.3,286046996.2,N
1500713895.2,286046995.6,N
1500713915.0,286046995.5,N
1500713915.9,286046995.5,N
1500713935.8,286046995.2,N
1500713955.6,286046995.8,N
1500713975.4,286046996.4,N
1500713995.3,286046996.3,N
